Location: Bear Valley
(38.4650°N, 120.0390°W)
Time: 21:10:05
(UTC-08:00)

OTV 5 (USA 277) - Visible Passes

Search period start: 17 February 2018 00:00
Search period end: 27 February 2018 00:00
Orbit: 404 x 417 km, 43.0° (Epoch: 07 September)

Date Brightness Start Highest point End Pass type
(mag) Time Alt. Az. Time Alt. Az. Time Alt. Az.
18 Feb ? 05:34:00 10° S 05:35:52 14° SE 05:37:44 10° ESE visible
20 Feb ? 05:28:32 15° SSW 05:30:46 35° SSE 05:33:48 10° E visible
21 Feb ? 04:40:16 22° SE 04:40:16 22° SE 04:42:27 10° E visible
21 Feb ? 06:13:38 10° WSW 06:16:55 70° NNW 06:20:11 10° ENE visible
22 Feb ? 05:24:37 36° WSW 05:25:51 83° SSE 05:29:07 10° ENE visible
23 Feb ? 04:36:06 31° E 04:36:06 31° E 04:38:01 10° ENE visible
23 Feb ? 06:09:03 10° W 06:12:11 42° N 06:15:21 10° ENE visible
24 Feb ? 05:20:15 39° WNW 05:21:04 52° NNW 05:24:17 10° ENE visible
25 Feb ? 04:31:35 27° ENE 04:31:35 27° ENE 04:33:14 10° ENE visible
25 Feb ? 06:04:31 10° WNW 06:07:34 35° N 06:10:37 10° ENE visible
26 Feb ? 05:15:37 31° NW 05:16:24 37° N 05:19:29 10° ENE visible
